owner,sensor,date,latitude,longitude,vertical_datum,direction_of_sea_water_velocity,sea_water_speed,upward_sea_water_velocity,qcFlag 
TABS,ioos:station:TABS:H:1,2007-07-01T00:00:00Z,27.8674,-96.5433,2.0,245.6195087,11.1437202,-99999.0,'11111222,11111222,99999999' 
TABS,ioos:station:TABS:H:1,2007-07-01T00:30:00Z,27.8674,-96.5433,2.0,232.6171232,4.694187896,-99999.0,'11133222,11111222,99999999' 
TABS,ioos:station:TABS:H:1,2007-07-01T01:00:00Z,27.8674,-96.5433,2.0,243.8715605,9.968680956,-99999.0,'11133222,11111222,99999999' 
TABS,ioos:station:TABS:H:1,2007-07-01T01:30:00Z,27.8674,-96.5433,2.0,254.7289252,9.681843833,-99999.0,'11133222,11111222,99999999' 
TABS,ioos:station:TABS:H:1,2007-07-01T02:00:00Z,27.8674,-96.5433,2.0,252.2960674,11.14793703,-99999.0,'11111222,11111222,99999999' 
TABS,ioos:station:TABS:H:1,2007-07-01T02:30:00Z,27.8674,-96.5433,2.0,245.2435389,12.60876283,-99999.0,'11111222,11111222,99999999' 
TABS,ioos:station:TABS:H:1,2007-07-01T03:00:00Z,27.8674,-96.5433,2.0,273.3668737,10.55821955,-99999.0,'11111222,11111222,99999999' 
TABS,ioos:station:TABS:H:1,2007-07-01T03:30:00Z,27.8674,-96.5433,2.0,274.7820803,15.83511288,-99999.0,'11111222,11111222,99999999' 
TABS,ioos:station:TABS:H:1,2007-07-01T04:00:00Z,27.8674,-96.5433,2.0,300.8105352,14.07665443,-99999.0,'11111222,11111222,99999999' 
TABS,ioos:station:TABS:H:1,2007-07-01T04:30:00Z,27.8674,-96.5433,2.0,282.8842148,10.85323915,-99999.0,'11111222,11111222,99999999' 
TABS,ioos:station:TABS:H:1,2007-07-01T05:00:00Z,27.8674,-96.5433,2.0,298.7048995,17.01044679,-99999.0,'11111222,11111222,99999999' 
TABS,ioos:station:TABS:H:1,2007-07-01T05:30:00Z,27.8674,-96.5433,2.0,300.1235706,16.717766,-99999.0,'11111222,11111222,99999999' 
TABS,ioos:station:TABS:H:1,2007-07-01T06:00:00Z,27.8674,-96.5433,2.0,320.1385753,14.36958594,-99999.0,'11111222,11111222,99999999' 
TABS,ioos:station:TABS:H:1,2007-07-01T06:30:00Z,27.8674,-96.5433,2.0,311.3699689,17.30935296,-99999.0,'11111222,11111222,99999999' 
TABS,ioos:station:TABS:H:1,2007-07-01T07:00:00Z,27.8674,-96.5433,2.0,312.4253179,19.35891784,-99999.0,'11111222,11111222,99999999' 
TABS,ioos:station:TABS:H:1,2007-07-01T07:30:00Z,27.8674,-96.5433,2.0,324.3732543,17.88820841,-99999.0,'11111222,11111222,99999999' 
TABS,ioos:station:TABS:H:1,2007-07-01T08:00:00Z,27.8674,-96.5433,2.0,335.6138964,21.41017515,-99999.0,'11111222,11111222,99999999' 
TABS,ioos:station:TABS:H:1,2007-07-01T08:30:00Z,27.8674,-96.5433,2.0,332.8157473,16.13193727,-99999.0,'11111222,11111222,99999999' 
TABS,ioos:station:TABS:H:1,2007-07-01T09:00:00Z,27.8674,-96.5433,2.0,344.7652878,9.970396181,-99999.0,'11133222,11111222,99999999' 
TABS,ioos:station:TABS:H:1,2007-07-01T09:30:00Z,27.8674,-96.5433,2.0,353.2102692,13.78669649,-99999.0,'11111222,11111222,99999999' 
TABS,ioos:station:TABS:H:1,2007-07-01T10:00:00Z,27.8674,-96.5433,2.0,356.7271381,12.61057096,-99999.0,'11111222,11111222,99999999' 
TABS,ioos:station:TABS:H:1,2007-07-01T10:30:00Z,27.8674,-96.5433,2.0,0.257139882,11.15011211,-99999.0,'11111222,11111222,99999999' 
TABS,ioos:station:TABS:H:1,2007-07-01T11:00:00Z,27.8674,-96.5433,2.0,3.731598732,6.45368112,-99999.0,'11133222,11111222,99999999' 
TABS,ioos:station:TABS:H:1,2007-07-01T11:30:00Z,27.8674,-96.5433,2.0,13.92162908,9.684466945,-99999.0,'11133222,11111222,99999999' 
TABS,ioos:station:TABS:H:1,2007-07-01T12:00:00Z,27.8674,-96.5433,2.0,26.56519952,7.334302966,-99999.0,'11133222,11111222,99999999' 
TABS,ioos:station:TABS:H:1,2007-07-01T12:30:00Z,27.8674,-96.5433,2.0,19.87631166,11.44157769,-99999.0,'11111222,11111222,99999999' 
TABS,ioos:station:TABS:H:1,2007-07-01T13:00:00Z,27.8674,-96.5433,2.0,35.71626199,12.31649707,-99999.0,'11111222,11111222,99999999' 
TABS,ioos:station:TABS:H:1,2007-07-01T13:30:00Z,27.8674,-96.5433,2.0,42.37171977,14.95690142,-99999.0,'11111222,11111222,99999999' 
TABS,ioos:station:TABS:H:1,2007-07-01T14:00:00Z,27.8674,-96.5433,2.0,50.84465744,11.73533553,-99999.0,'11111222,11111222,99999999' 
TABS,ioos:station:TABS:H:1,2007-07-01T14:30:00Z,27.8674,-96.5433,2.0,46.58697818,7.915560624,-99999.0,'11133222,11111222,99999999' 
TABS,ioos:station:TABS:H:1,2007-07-01T15:00:00Z,27.8674,-96.5433,2.0,24.4552616,8.502823061,-99999.0,'11133222,11111222,99999999' 
TABS,ioos:station:TABS:H:1,2007-07-01T15:30:00Z,27.8674,-96.5433,2.0,47.65283265,14.66696969,-99999.0,'11111222,11111222,99999999' 
TABS,ioos:station:TABS:H:1,2007-07-01T16:00:00Z,27.8674,-96.5433,2.0,35.68699533,10.26818874,-99999.0,'11111222,11111222,99999999' 
TABS,ioos:station:TABS:H:1,2007-07-01T16:30:00Z,27.8674,-96.5433,2.0,44.49257834,14.36897352,-99999.0,'11111222,11111222,99999999' 
TABS,ioos:station:TABS:H:1,2007-07-01T17:00:00Z,27.8674,-96.5433,2.0,39.58824873,13.49518433,-99999.0,'11111222,11111222,99999999' 
TABS,ioos:station:TABS:H:1,2007-07-01T17:30:00Z,27.8674,-96.5433,2.0,40.60611888,13.1980491,-99999.0,'11111222,11111222,99999999' 
TABS,ioos:station:TABS:H:1,2007-07-01T18:00:00Z,27.8674,-96.5433,2.0,31.1459236,13.49529177,-99999.0,'11111222,11111222,99999999' 
TABS,ioos:station:TABS:H:1,2007-07-01T18:30:00Z,27.8674,-96.5433,2.0,63.15115527,11.73502876,-99999.0,'11111222,11111222,99999999' 
TABS,ioos:station:TABS:H:1,2007-07-01T19:00:00Z,27.8674,-96.5433,2.0,53.31664515,12.90606834,-99999.0,'11111222,11111222,99999999' 
TABS,ioos:station:TABS:H:1,2007-07-01T19:30:00Z,27.8674,-96.5433,2.0,41.0022727,10.85221176,-99999.0,'11111222,11111222,99999999' 
TABS,ioos:station:TABS:H:1,2007-07-01T20:00:00Z,27.8674,-96.5433,2.0,53.28448527,11.14004039,-99999.0,'11111222,11111222,99999999' 
TABS,ioos:station:TABS:H:1,2007-07-01T20:30:00Z,27.8674,-96.5433,2.0,23.41066269,6.745257593,-99999.0,'11133222,11111222,99999999' 
TABS,ioos:station:TABS:H:1,2007-07-01T21:00:00Z,27.8674,-96.5433,2.0,37.83481325,4.988707247,-99999.0,'11133222,11111222,99999999' 
TABS,ioos:station:TABS:H:1,2007-07-01T21:30:00Z,27.8674,-96.5433,2.0,3.454810327,3.816935944,-99999.0,'11133222,11111222,99999999' 
TABS,ioos:station:TABS:H:1,2007-07-01T22:00:00Z,27.8674,-96.5433,2.0,19.92765693,3.520809566,-99999.0,'11133222,11111222,99999999' 
TABS,ioos:station:TABS:H:1,2007-07-01T22:30:00Z,27.8674,-96.5433,2.0,6.850017039,6.456082403,-99999.0,'11133222,11111222,99999999' 
TABS,ioos:station:TABS:H:1,2007-07-01T23:00:00Z,27.8674,-96.5433,2.0,13.12892135,3.522059057,-99999.0,'11133222,11111222,99999999' 
TABS,ioos:station:TABS:H:1,2007-07-01T23:30:00Z,27.8674,-96.5433,2.0,135.6901704,2.347764895,-99999.0,'11133222,11111222,99999999' 
TABS,ioos:station:TABS:H:1,2007-07-02T00:00:00Z,27.8674,-96.5433,2.0,44.58592705,2.934569815,-99999.0,'11133222,11111222,99999999' 
TABS,ioos:station:TABS:H:1,2007-07-02T00:30:00Z,27.8674,-96.5433,2.0,353.8615752,4.395201929,-99999.0,'11133222,11111222,99999999' 
TABS,ioos:station:TABS:H:1,2007-07-02T01:00:00Z,27.8674,-96.5433,2.0,339.5237353,6.746258222,-99999.0,'11133222,11111222,99999999' 
TABS,ioos:station:TABS:H:1,2007-07-02T01:30:00Z,27.8674,-96.5433,2.0,338.4187114,9.678512282,-99999.0,'11133222,11111222,99999999' 
TABS,ioos:station:TABS:H:1,2007-07-02T02:00:00Z,27.8674,-96.5433,2.0,309.5556283,4.396828402,-99999.0,'11133222,11111222,99999999' 
TABS,ioos:station:TABS:H:1,2007-07-02T02:30:00Z,27.8674,-96.5433,2.0,324.0160079,8.799051085,-99999.0,'11133222,11111222,99999999' 
TABS,ioos:station:TABS:H:1,2007-07-02T03:00:00Z,27.8674,-96.5433,2.0,334.5999025,10.56089485,-99999.0,'11111222,11111222,99999999' 
TABS,ioos:station:TABS:H:1,2007-07-02T03:30:00Z,27.8674,-96.5433,2.0,309.2701074,10.26900677,-99999.0,'11111222,11111222,99999999' 
TABS,ioos:station:TABS:H:1,2007-07-02T04:00:00Z,27.8674,-96.5433,2.0,323.6825268,13.49062638,-99999.0,'11111222,11111222,99999999' 
TABS,ioos:station:TABS:H:1,2007-07-02T04:30:00Z,27.8674,-96.5433,2.0,328.9512469,16.13117479,-99999.0,'11111222,11111222,99999999' 
TABS,ioos:station:TABS:H:1,2007-07-02T05:00:00Z,27.8674,-96.5433,2.0,331.769802,18.77301254,-99999.0,'11111222,11111222,99999999' 
TABS,ioos:station:TABS:H:1,2007-07-02T05:30:00Z,27.8674,-96.5433,2.0,315.5925997,10.26066762,-99999.0,'11111222,11111222,99999999' 
TABS,ioos:station:TABS:H:1,2007-07-02T06:00:00Z,27.8674,-96.5433,2.0,333.8719535,21.70837857,-99999.0,'11111222,11111222,99999999' 
TABS,ioos:station:TABS:H:1,2007-07-02T06:30:00Z,27.8674,-96.5433,2.0,330.3604854,24.34557865,-99999.0,'11111222,11111222,99999999' 
TABS,ioos:station:TABS:H:1,2007-07-02T07:00:00Z,27.8674,-96.5433,2.0,337.0228235,25.51434303,-99999.0,'11111222,11111222,99999999' 
TABS,ioos:station:TABS:H:1,2007-07-02T07:30:00Z,27.8674,-96.5433,2.0,341.2488407,24.04632612,-99999.0,'11111222,11111222,99999999' 
TABS,ioos:station:TABS:H:1,2007-07-02T08:00:00Z,27.8674,-96.5433,2.0,348.6249929,25.80693899,-99999.0,'11111222,11111222,99999999' 
TABS,ioos:station:TABS:H:1,2007-07-02T08:30:00Z,27.8674,-96.5433,2.0,346.5280261,24.63796258,-99999.0,'11111222,11111222,99999999' 
TABS,ioos:station:TABS:H:1,2007-07-02T09:00:00Z,27.8674,-96.5433,2.0,350.7363115,19.94007272,-99999.0,'11111222,11111222,99999999' 
TABS,ioos:station:TABS:H:1,2007-07-02T09:30:00Z,27.8674,-96.5433,2.0,355.3018475,25.51574024,-99999.0,'11111222,11111222,99999999' 
TABS,ioos:station:TABS:H:1,2007-07-02T10:00:00Z,27.8674,-96.5433,2.0,354.6101306,27.57191687,-99999.0,'11111222,11111222,99999999' 
TABS,ioos:station:TABS:H:1,2007-07-02T10:30:00Z,27.8674,-96.5433,2.0,11.09232471,27.86045944,-99999.0,'11111222,11111222,99999999' 
TABS,ioos:station:TABS:H:1,2007-07-02T11:00:00Z,27.8674,-96.5433,2.0,12.50732063,25.81255702,-99999.0,'11111222,11111222,99999999' 
TABS,ioos:station:TABS:H:1,2007-07-02T11:30:00Z,27.8674,-96.5433,2.0,4.809047813,17.89298466,-99999.0,'11111222,11111222,99999999' 
TABS,ioos:station:TABS:H:1,2007-07-02T12:00:00Z,27.8674,-96.5433,2.0,14.25020983,24.05,-99999.0,'11111222,11111222,99999999' 
TABS,ioos:station:TABS:H:1,2007-07-02T12:30:00Z,27.8674,-96.5433,2.0,22.35318356,28.73954245,-99999.0,'11111222,11111222,99999999' 
TABS,ioos:station:TABS:H:1,2007-07-02T13:00:00Z,27.8674,-96.5433,2.0,13.55179928,25.52051136,-99999.0,'11111222,11111222,99999999' 
TABS,ioos:station:TABS:H:1,2007-07-02T13:30:00Z,27.8674,-96.5433,2.0,31.13141384,25.22240472,-99999.0,'11111222,11111222,99999999' 
TABS,ioos:station:TABS:H:1,2007-07-02T14:00:00Z,27.8674,-96.5433,2.0,26.90981877,31.97187827,-99999.0,'11111222,11111222,99999999' 
TABS,ioos:station:TABS:H:1,2007-07-02T14:30:00Z,27.8674,-96.5433,2.0,34.65809893,30.21050976,-99999.0,'11111222,11111222,99999999' 
TABS,ioos:station:TABS:H:1,2007-07-02T15:00:00Z,27.8674,-96.5433,2.0,42.02692397,29.03753605,-99999.0,'11111222,11111222,99999999' 
TABS,ioos:station:TABS:H:1,2007-07-02T15:30:00Z,27.8674,-96.5433,2.0,44.50164711,28.44798235,-99999.0,'11111222,11111222,99999999' 
TABS,ioos:station:TABS:H:1,2007-07-02T16:00:00Z,27.8674,-96.5433,2.0,48.01789215,25.51951802,-99999.0,'11111222,11111222,99999999' 
TABS,ioos:station:TABS:H:1,2007-07-02T16:30:00Z,27.8674,-96.5433,2.0,48.70822438,24.92820491,-99999.0,'11111222,11111222,99999999' 
TABS,ioos:station:TABS:H:1,2007-07-02T17:00:00Z,27.8674,-96.5433,2.0,65.58415047,28.74027314,-99999.0,'11111222,11111222,99999999' 
TABS,ioos:station:TABS:H:1,2007-07-02T17:30:00Z,27.8674,-96.5433,2.0,70.51089431,22.00052727,-99999.0,'11111222,11111222,99999999' 
TABS,ioos:station:TABS:H:1,2007-07-02T18:00:00Z,27.8674,-96.5433,2.0,50.11113239,10.55665193,-99999.0,'11111222,11111222,99999999' 
TABS,ioos:station:TABS:H:1,2007-07-02T18:30:00Z,27.8674,-96.5433,2.0,50.45197919,9.972893261,-99999.0,'11133222,11111222,99999999' 
TABS,ioos:station:TABS:H:1,2007-07-02T19:00:00Z,27.8674,-96.5433,2.0,13.37461965,1.469863939,-99999.0,'11133222,11111222,99999999' 
TABS,ioos:station:TABS:H:1,2007-07-02T19:30:00Z,27.8674,-96.5433,2.0,247.0464666,6.743960261,-99999.0,'11133222,11111222,99999999' 
TABS,ioos:station:TABS:H:1,2007-07-02T20:00:00Z,27.8674,-96.5433,2.0,281.0997525,5.869795567,-99999.0,'11133222,11111222,99999999' 
TABS,ioos:station:TABS:H:1,2007-07-02T20:30:00Z,27.8674,-96.5433,2.0,300.7964109,5.273604081,-99999.0,'11133222,11111222,99999999' 
TABS,ioos:station:TABS:H:1,2007-07-02T21:00:00Z,27.8674,-96.5433,2.0,326.1198714,10.85276923,-99999.0,'11111222,11111222,99999999' 
TABS,ioos:station:TABS:H:1,2007-07-02T21:30:00Z,27.8674,-96.5433,2.0,322.2632158,24.05075467,-99999.0,'11111222,11111222,99999999' 
TABS,ioos:station:TABS:H:1,2007-07-02T22:00:00Z,27.8674,-96.5433,2.0,324.371295,28.44467085,-99999.0,'11111222,11111222,99999999' 
TABS,ioos:station:TABS:H:1,2007-07-02T22:30:00Z,27.8674,-96.5433,2.0,321.9074623,26.9881474,-99999.0,'11111222,11111222,99999999' 
TABS,ioos:station:TABS:H:1,2007-07-02T23:00:00Z,27.8674,-96.5433,2.0,331.758324,29.0365976,-99999.0,'11111222,11111222,99999999' 
TABS,ioos:station:TABS:H:1,2007-07-02T23:30:00Z,27.8674,-96.5433,2.0,326.473907,28.15392335,-99999.0,'11111222,11111222,99999999' 
TABS,ioos:station:TABS:H:1,2007-07-03T00:00:00Z,27.8674,-96.5433,2.0,330.0007091,28.7403723,-99999.0,'11111222,11111222,99999999' 
TABS,ioos:station:TABS:H:1,2007-07-03T00:30:00Z,27.8674,-96.5433,2.0,333.1601526,31.67203183,-99999.0,'11111222,11111222,99999999' 
TABS,ioos:station:TABS:H:1,2007-07-03T01:00:00Z,27.8674,-96.5433,2.0,327.8961133,31.96852358,-99999.0,'11111222,11111222,99999999' 
TABS,ioos:station:TABS:H:1,2007-07-03T01:30:00Z,27.8674,-96.5433,2.0,326.8350178,27.85821243,-99999.0,'11111222,11111222,99999999' 
TABS,ioos:station:TABS:H:1,2007-07-03T02:00:00Z,27.8674,-96.5433,2.0,321.2122293,25.81246404,-99999.0,'11111222,11111222,99999999' 
TABS,ioos:station:TABS:H:1,2007-07-03T02:30:00Z,27.8674,-96.5433,2.0,320.1472473,23.17340286,-99999.0,'11111222,11111222,99999999' 
TABS,ioos:station:TABS:H:1,2007-07-03T03:00:00Z,27.8674,-96.5433,2.0,327.532809,35.48670314,-99999.0,'11111222,11111222,99999999' 
TABS,ioos:station:TABS:H:1,2007-07-03T03:30:00Z,27.8674,-96.5433,2.0,334.2118445,31.67457656,-99999.0,'11111222,11111222,99999999' 
TABS,ioos:station:TABS:H:1,2007-07-03T04:00:00Z,27.8674,-96.5433,2.0,334.5711706,38.12350718,-99999.0,'11111222,11111222,99999999' 
TABS,ioos:station:TABS:H:1,2007-07-03T04:30:00Z,27.8674,-96.5433,2.0,329.6464884,34.31366637,-99999.0,'11111222,11111222,99999999' 
TABS,ioos:station:TABS:H:1,2007-07-03T05:00:00Z,27.8674,-96.5433,2.0,332.4540107,40.47876604,-99999.0,'11111222,11111222,99999999' 
TABS,ioos:station:TABS:H:1,2007-07-03T05:30:00Z,27.8674,-96.5433,2.0,334.5655904,36.95150606,-99999.0,'11111222,11111222,99999999' 
TABS,ioos:station:TABS:H:1,2007-07-03T06:00:00Z,27.8674,-96.5433,2.0,334.5689802,38.42317009,-99999.0,'11111222,11111222,99999999' 
TABS,ioos:station:TABS:H:1,2007-07-03T06:30:00Z,27.8674,-96.5433,2.0,335.9824254,37.83587715,-99999.0,'11111222,11111222,99999999' 
TABS,ioos:station:TABS:H:1,2007-07-03T07:00:00Z,27.8674,-96.5433,2.0,337.3767628,36.36846161,-99999.0,'11111222,11111222,99999999' 
TABS,ioos:station:TABS:H:1,2007-07-03T07:30:00Z,27.8674,-96.5433,2.0,349.6939442,35.4926598,-99999.0,'11111222,11111222,99999999' 
TABS,ioos:station:TABS:H:1,2007-07-03T08:00:00Z,27.8674,-96.5433,2.0,351.7996528,28.7439124,-99999.0,'11111222,11111222,99999999' 
TABS,ioos:station:TABS:H:1,2007-07-03T08:30:00Z,27.8674,-96.5433,2.0,357.4228876,34.0244177,-99999.0,'11111222,11111222,99999999' 
TABS,ioos:station:TABS:H:1,2007-07-03T09:00:00Z,27.8674,-96.5433,2.0,3.040193075,34.31829396,-99999.0,'11111222,11111222,99999999' 
TABS,ioos:station:TABS:H:1,2007-07-03T09:30:00Z,27.8674,-96.5433,2.0,0.238020844,33.73029054,-99999.0,'11111222,11111222,99999999' 
TABS,ioos:station:TABS:H:1,2007-07-03T10:00:00Z,27.8674,-96.5433,2.0,358.1217219,30.50639441,-99999.0,'11111222,11111222,99999999' 
TABS,ioos:station:TABS:H:1,2007-07-03T10:30:00Z,27.8674,-96.5433,2.0,1.647940406,33.73394878,-99999.0,'11111222,11111222,99999999' 
TABS,ioos:station:TABS:H:1,2007-07-03T11:00:00Z,27.8674,-96.5433,2.0,1.283448961,29.91750324,-99999.0,'11111222,11111222,99999999' 
TABS,ioos:station:TABS:H:1,2007-07-03T11:30:00Z,27.8674,-96.5433,2.0,354.9675418,24.0527275,-99999.0,'11111222,11111222,99999999' 
TABS,ioos:station:TABS:H:1,2007-07-03T12:00:00Z,27.8674,-96.5433,2.0,0.577055213,30.79156053,-99999.0,'11111222,11111222,99999999' 
TABS,ioos:station:TABS:H:1,2007-07-03T12:30:00Z,27.8674,-96.5433,2.0,358.1321637,33.43777056,-99999.0,'11111222,11111222,99999999' 
TABS,ioos:station:TABS:H:1,2007-07-03T13:00:00Z,27.8674,-96.5433,2.0,1.633582723,35.78453996,-99999.0,'11111222,11111222,99999999' 
TABS,ioos:station:TABS:H:1,2007-07-03T13:30:00Z,27.8674,-96.5433,2.0,9.345480836,34.609347,-99999.0,'11111222,11111222,99999999' 
TABS,ioos:station:TABS:H:1,2007-07-03T14:00:00Z,27.8674,-96.5433,2.0,8.63961338,37.54602509,-99999.0,'11111222,11111222,99999999' 
TABS,ioos:station:TABS:H:1,2007-07-03T14:30:00Z,27.8674,-96.5433,2.0,13.20897702,39.2997201,-99999.0,'11111222,11111222,99999999' 
TABS,ioos:station:TABS:H:1,2007-07-03T15:00:00Z,27.8674,-96.5433,2.0,3.756724549,41.05821477,-99999.0,'11111222,11111222,99999999' 
TABS,ioos:station:TABS:H:1,2007-07-03T15:30:00Z,27.8674,-96.5433,2.0,12.1486214,35.78129819,-99999.0,'11111222,11111222,99999999' 
TABS,ioos:station:TABS:H:1,2007-07-03T16:00:00Z,27.8674,-96.5433,2.0,10.03883961,31.38042224,-99999.0,'11111222,11111222,99999999' 
TABS,ioos:station:TABS:H:1,2007-07-03T16:30:00Z,27.8674,-96.5433,2.0,10.40154889,30.79606631,-99999.0,'11111222,11111222,99999999' 
TABS,ioos:station:TABS:H:1,2007-07-03T17:00:00Z,27.8674,-96.5433,2.0,19.89074608,29.62745348,-99999.0,'11111222,11111222,99999999' 
TABS,ioos:station:TABS:H:1,2007-07-03T17:30:00Z,27.8674,-96.5433,2.0,14.97124726,21.40661814,-99999.0,'11111222,11111222,99999999' 
TABS,ioos:station:TABS:H:1,2007-07-03T18:00:00Z,27.8674,-96.5433,2.0,26.57490571,26.39901892,-99999.0,'11111222,11111222,99999999' 
TABS,ioos:station:TABS:H:1,2007-07-03T18:30:00Z,27.8674,-96.5433,2.0,11.08659755,21.11402378,-99999.0,'11111222,11111222,99999999' 
TABS,ioos:station:TABS:H:1,2007-07-03T19:00:00Z,27.8674,-96.5433,2.0,23.39859121,22.58746998,-99999.0,'11111222,11111222,99999999' 
TABS,ioos:station:TABS:H:1,2007-07-03T19:30:00Z,27.8674,-96.5433,2.0,10.03684973,20.82875416,-99999.0,'11111222,11111222,99999999' 
TABS,ioos:station:TABS:H:1,2007-07-03T20:00:00Z,27.8674,-96.5433,2.0,350.0398214,20.23499197,-99999.0,'11111222,11111222,99999999' 
TABS,ioos:station:TABS:H:1,2007-07-03T20:30:00Z,27.8674,-96.5433,2.0,8.97589369,19.3570349,-99999.0,'11111222,11111222,99999999' 
TABS,ioos:station:TABS:H:1,2007-07-03T21:00:00Z,27.8674,-96.5433,2.0,350.388386,17.00877715,-99999.0,'11111222,11111222,99999999' 
TABS,ioos:station:TABS:H:1,2007-07-03T21:30:00Z,27.8674,-96.5433,2.0,345.1234497,15.54092983,-99999.0,'11111222,11111222,99999999' 
TABS,ioos:station:TABS:H:1,2007-07-03T22:00:00Z,27.8674,-96.5433,2.0,345.8113241,26.39524578,-99999.0,'11111222,11111222,99999999' 
TABS,ioos:station:TABS:H:1,2007-07-03T22:30:00Z,27.8674,-96.5433,2.0,339.8366854,21.69993779,-99999.0,'11111222,11111222,99999999' 
TABS,ioos:station:TABS:H:1,2007-07-03T23:00:00Z,27.8674,-96.5433,2.0,335.2821143,23.17323025,-99999.0,'11111222,11111222,99999999' 
TABS,ioos:station:TABS:H:1,2007-07-03T23:30:00Z,27.8674,-96.5433,2.0,341.5834765,19.94132393,-99999.0,'11111222,11111222,99999999' 
TABS,ioos:station:TABS:H:1,2007-07-04T00:00:00Z,27.8674,-96.5433,2.0,345.1087319,12.0238305,-99999.0,'11111222,11111222,99999999' 
TABS,ioos:station:TABS:H:1,2007-07-04T00:30:00Z,27.8674,-96.5433,2.0,345.1227571,14.37178486,-99999.0,'11111222,11111222,99999999' 
TABS,ioos:station:TABS:H:1,2007-07-04T01:00:00Z,27.8674,-96.5433,2.0,353.9008095,20.23454719,-99999.0,'11111222,11111222,99999999' 
TABS,ioos:station:TABS:H:1,2007-07-04T01:30:00Z,27.8674,-96.5433,2.0,359.8721041,17.89004472,-99999.0,'11111222,11144222,99999999' 
TABS,ioos:station:TABS:H:1,2007-07-04T02:00:00Z,27.8674,-96.5433,2.0,4.102191767,14.95831876,-99999.0,'11111222,11111222,99999999' 
TABS,ioos:station:TABS:H:1,2007-07-04T02:30:00Z,27.8674,-96.5433,2.0,348.6392236,13.19862114,-99999.0,'11111222,11111222,99999999' 
TABS,ioos:station:TABS:H:1,2007-07-04T03:00:00Z,27.8674,-96.5433,2.0,16.02473095,17.89535135,-99999.0,'11111222,11111222,99999999' 
TABS,ioos:station:TABS:H:1,2007-07-04T03:30:00Z,27.8674,-96.5433,2.0,1.658887255,15.54651408,-99999.0,'11111222,11111222,99999999' 
TABS,ioos:station:TABS:H:1,2007-07-04T04:00:00Z,27.8674,-96.5433,2.0,8.290806298,21.70684915,-99999.0,'11111222,11111222,99999999' 
TABS,ioos:station:TABS:H:1,2007-07-04T04:30:00Z,27.8674,-96.5433,2.0,25.86650677,19.07060565,-99999.0,'11111222,11111222,99999999' 
TABS,ioos:station:TABS:H:1,2007-07-04T05:00:00Z,27.8674,-96.5433,2.0,25.17570513,17.88933202,-99999.0,'11111222,11111222,99999999' 
TABS,ioos:station:TABS:H:1,2007-07-04T05:30:00Z,27.8674,-96.5433,2.0,25.84748115,16.42297172,-99999.0,'11111222,11111222,99999999' 
TABS,ioos:station:TABS:H:1,2007-07-04T06:00:00Z,27.8674,-96.5433,2.0,29.73130855,15.54651408,-99999.0,'11111222,11111222,99999999' 
TABS,ioos:station:TABS:H:1,2007-07-04T06:30:00Z,27.8674,-96.5433,2.0,14.61357919,16.13186288,-99999.0,'11111222,11111222,99999999' 
TABS,ioos:station:TABS:H:1,2007-07-04T07:00:00Z,27.8674,-96.5433,2.0,26.20119142,17.59821014,-99999.0,'11111222,11111222,99999999' 
TABS,ioos:station:TABS:H:1,2007-07-04T07:30:00Z,27.8674,-96.5433,2.0,15.66084535,14.37358689,-99999.0,'11111222,11111222,99999999' 
TABS,ioos:station:TABS:H:1,2007-07-04T08:00:00Z,27.8674,-96.5433,2.0,16.01060844,19.36098396,-99999.0,'11111222,11111222,99999999' 
TABS,ioos:station:TABS:H:1,2007-07-04T08:30:00Z,27.8674,-96.5433,2.0,25.15672015,14.37331555,-99999.0,'11111222,11111222,99999999' 
TABS,ioos:station:TABS:H:1,2007-07-04T09:00:00Z,27.8674,-96.5433,2.0,40.61771049,19.06276475,-99999.0,'11111222,11111222,99999999' 
TABS,ioos:station:TABS:H:1,2007-07-04T09:30:00Z,27.8674,-96.5433,2.0,35.34857504,19.35882486,-99999.0,'11111222,11111222,99999999' 
TABS,ioos:station:TABS:H:1,2007-07-04T10:00:00Z,27.8674,-96.5433,2.0,30.79637973,18.1840727,-99999.0,'11111222,11111222,99999999' 
TABS,ioos:station:TABS:H:1,2007-07-04T10:30:00Z,27.8674,-96.5433,2.0,32.89367927,19.35258639,-99999.0,'11111222,11111222,99999999' 
TABS,ioos:station:TABS:H:1,2007-07-04T11:00:00Z,27.8674,-96.5433,2.0,45.20588655,13.78160005,-99999.0,'11111222,11111222,99999999' 
TABS,ioos:station:TABS:H:1,2007-07-04T11:30:00Z,27.8674,-96.5433,2.0,53.6285747,17.01464369,-99999.0,'11111222,11111222,99999999' 
TABS,ioos:station:TABS:H:1,2007-07-04T12:00:00Z,27.8674,-96.5433,2.0,40.97890727,16.13346832,-99999.0,'11111222,11111222,99999999' 
TABS,ioos:station:TABS:H:1,2007-07-04T12:30:00Z,27.8674,-96.5433,2.0,59.96678979,18.48140958,-99999.0,'11111222,11111222,99999999' 
TABS,ioos:station:TABS:H:1,2007-07-04T13:00:00Z,27.8674,-96.5433,2.0,58.91755101,23.16607865,-99999.0,'11111222,11111222,99999999' 
TABS,ioos:station:TABS:H:1,2007-07-04T13:30:00Z,27.8674,-96.5433,2.0,50.46110329,22.2901817,-99999.0,'11111222,11111222,99999999' 
TABS,ioos:station:TABS:H:1,2007-07-04T14:00:00Z,27.8674,-96.5433,2.0,61.37361627,22.87636335,-99999.0,'11111222,11111222,99999999' 
TABS,ioos:station:TABS:H:1,2007-07-04T14:30:00Z,27.8674,-96.5433,2.0,76.49893452,24.92889889,-99999.0,'11111222,11111222,99999999' 
TABS,ioos:station:TABS:H:1,2007-07-04T15:00:00Z,27.8674,-96.5433,2.0,63.82851881,32.55791762,-99999.0,'11111222,11111222,99999999' 
TABS,ioos:station:TABS:H:1,2007-07-04T15:30:00Z,27.8674,-96.5433,2.0,60.32035246,34.8984355,-99999.0,'11111222,11111222,99999999' 
TABS,ioos:station:TABS:H:1,2007-07-04T16:00:00Z,27.8674,-96.5433,2.0,71.92772011,26.98109338,-99999.0,'11111222,11111222,99999999' 
TABS,ioos:station:TABS:H:1,2007-07-04T16:30:00Z,27.8674,-96.5433,2.0,63.48580494,25.2228567,-99999.0,'11111222,11111222,99999999' 
TABS,ioos:station:TABS:H:1,2007-07-04T17:00:00Z,27.8674,-96.5433,2.0,59.2819788,17.59934658,-99999.0,'11111222,11111222,99999999' 
TABS,ioos:station:TABS:H:1,2007-07-04T17:30:00Z,27.8674,-96.5433,2.0,69.46432586,13.198731,-99999.0,'11111222,11111222,99999999' 
TABS,ioos:station:TABS:H:1,2007-07-04T18:00:00Z,27.8674,-96.5433,2.0,125.3559566,11.73409562,-99999.0,'11111222,11111222,99999999' 